KE2A-13 Weather Reports


Display with metric or nautical units.
time (UTC)temp
F
wind
direction
speed
MPH
gust
MPH
rain 1hr
in
rain 24hr
in
rain mn
in
humidity
%
barometer
mb
20260510163000 65 171 1.0 4.0 0.00 0.00 0.00 78 1012.8
20260510161500 65 205 2.0 5.0 0.00 0.00 0.00 78 1013.0
20260510160000 63 117 3.0 4.0 0.00 0.00 0.00 80 1013.1
20260510154500 63 101 3.0 5.0 0.00 0.00 0.00 82 1013.3
20260510153000 62 191 1.0 2.0 0.00 0.00 0.00 83 1013.2
20260510151500 61 70 1.0 2.0 0.00 0.00 0.00 85 1013.3
20260510150000 61 58 1.0 2.0 0.00 0.00 0.00 85 1013.4
20260510144500 59 49 2.0 3.0 0.00 0.00 0.00 86 1013.4
20260510143000 60 90 2.0 4.0 0.00 0.00 0.00 84 1013.5
20260510141500 58 128 3.0 5.0 0.00 0.00 0.00 87 1013.2
20260510140000 58 97 2.0 4.0 0.00 0.00 0.00 89 1013.3
20260510134500 57 124 2.0 4.0 0.00 0.00 0.00 89 1013.1
20260510133000 56 100 1.0 2.0 0.00 0.00 0.00 94 1013.2
20260510131500 56 94 1.0 1.0 0.00 0.00 0.00 95 1013.0
20260510130000 54 51 1.0 2.0 0.00 0.00 0.00 97 1012.9
20260510124500 54 88 1.0 1.0 0.00 0.00 0.00 98 1012.9
20260510123000 54 210 1.0 1.0 0.00 0.00 0.00 99 1012.7
20260510121500 54 14 0.0 0.0 0.00 0.00 0.00 100 1012.5
20260510120000 54 117 1.0 2.0 0.00 0.00 0.00 99 1012.4
20260510114500 53 98 2.0 2.0 0.00 0.00 0.00 99 1012.5
20260510113000 53 0.0 0.0 0.00 0.00 0.00 99 1012.1
20260510111500 53 0.0 0.0 0.00 0.00 0.00 99 1012.1
20260510110000 53 349 0.0 1.0 0.00 0.00 0.00 99 1011.7
20260510104500 52 0.0 0.0 0.00 0.00 0.00 99 1011.7
20260510103000 52 0.0 0.0 0.00 0.00 0.00 99 1011.6
20260510101500 52 296 0.0 1.0 0.00 0.00 0.00 99 1011.7
20260510100000 52 34 1.0 1.0 0.00 0.00 0.00 99 1011.4
20260510094500 52 328 2.0 2.0 0.00 0.00 0.00 99 1011.5
20260510093000 52 0.0 0.0 0.00 0.00 0.00 99 1011.7
20260510091500 52 0.0 0.0 0.00 0.00 0.00 99 1011.7
20260510090000 52 333 0.0 1.0 0.00 0.00 0.00 99 1011.9
20260510084500 52 301 0.0 0.0 0.00 0.00 0.00 99 1012.0
20260510083000 52 90 0.0 1.0 0.00 0.00 0.00 99 1011.9
20260510081500 52 66 0.0 1.0 0.00 0.00 0.00 99 1012.0
20260510080000 52 110 1.0 2.0 0.00 0.00 0.00 99 1011.7
20260510074500 52 84 0.0 1.0 0.00 0.00 0.00 99 1011.5
20260510073000 52 355 0.0 1.0 0.00 0.00 0.00 99 1011.2
20260510071500 52 356 0.0 1.0 0.00 0.00 0.00 99 1011.3
20260510070000 52 18 1.0 1.0 0.00 0.00 0.00 99 1011.5
20260510064500 52 357 0.0 1.0 0.00 0.00 0.00 99 1011.5
20260510063000 52 336 1.0 2.0 0.00 0.00 0.00 99 1011.6
20260510061500 52 343 0.0 1.0 0.00 0.00 0.00 99 1011.6
20260510060000 52 346 0.0 1.0 0.00 0.00 0.00 99 1011.4
20260510054500 52 326 1.0 2.0 0.00 0.00 0.00 99 1011.3
20260510053000 52 351 0.0 2.0 0.00 0.00 0.00 99 1011.2
20260510051500 52 6 1.0 1.0 0.00 0.00 0.00 99 1011.2
20260510050000 52 0.0 0.0 0.00 0.00 0.00 99 1011.5
20260510044500 52 0.0 0.0 0.00 0.00 0.00 99 1011.5
20260510043000 52 0.0 0.0 0.00 0.00 0.00 100 1011.4
20260510041500 52 0.0 0.0 0.00 0.00 0.00 100 1011.5
20260510040000 52 0.0 0.0 0.00 0.00 0.44 100 1011.3
20260510034500 52 0.0 0.0 0.00 0.00 0.44 100 1011.3
20260510033000 52 357 1.0 1.0 0.00 0.00 0.44 99 1011.0
20260510031500 53 5 0.0 1.0 0.00 0.00 0.44 99 1011.1
20260510030000 53 353 0.0 2.0 0.00 0.00 0.44 99 1011.1
20260510024500 53 356 1.0 2.0 0.00 0.00 0.44 99 1011.4
20260510023000 53 338 1.0 2.0 0.00 0.00 0.44 99 1011.2
20260510021500 53 344 1.0 2.0 0.00 0.00 0.44 99 1011.1
20260510020000 53 12 0.0 0.0 0.00 0.00 0.44 99 1011.3
20260510014500 53 0.0 0.0 0.00 0.00 0.44 99 1011.0
20260510013000 53 0.0 0.0 0.00 0.00 0.44 99 1011.0
20260510011500 52 5 1.0 1.0 0.00 0.00 0.44 99 1010.8
20260510010000 52 0.0 0.0 0.00 0.00 0.44 98 1010.6
20260510004500 52 0.0 0.0 0.00 0.00 0.44 98 1010.6
20260510003000 53 0.0 0.0 0.00 0.00 0.44 98 1010.6
20260510001500 53 321 0.0 0.0 0.00 0.00 0.44 98 1010.6
20260510000000 54 324 0.0 1.0 0.00 0.00 0.44 97 1010.3
20260509234500 54 8 0.0 0.0 0.00 0.00 0.44 97 1010.3
20260509233000 55 318 0.0 1.0 0.00 0.00 0.44 97 1010.3
20260509231500 55 0.0 0.0 0.00 0.00 0.44 97 1010.3
20260509230000 55 266 0.0 2.0 0.02 0.00 0.44 97 1010.5
20260509224500 54 327 2.0 2.0 0.13 0.00 0.44 97 1010.4
20260509223000 54 331 0.0 2.0 0.13 0.00 0.44 97 1010.5
20260509221500 54 0.0 0.0 0.17 0.00 0.44 97 1010.6
20260509220000 54 316 2.0 3.0 0.15 0.00 0.42 97 1010.7
20260509214500 54 0.0 0.0 0.13 0.00 0.39 97 1011.1
20260509213000 54 359 0.0 1.0 0.12 0.00 0.31 96 1011.1
20260509211500 55 307 1.0 2.0 0.09 0.00 0.29 96 1010.9
20260509210000 55 321 0.0 1.0 0.10 0.00 0.26 95 1011.0
20260509204500 56 320 0.0 0.0 0.07 0.00 0.26 94 1011.2
20260509203000 56 0.0 0.0 0.02 0.00 0.19 93 1011.4
20260509201500 57 18 0.0 1.0 0.01 0.00 0.16 93 1011.3
20260509200000 58 56 0.0 1.0 0.03 0.00 0.15 95 1011.0
20260509194500 57 0.0 0.0 0.04 0.00 0.15 95 1011.1
20260509193000 57 41 0.0 1.0 0.09 0.00 0.15 94 1011.3
20260509191500 57 44 1.0 2.0 0.11 0.00 0.18 94 1011.1
20260509190000 58 344 1.0 2.0 0.09 0.00 0.17 93 1011.6
20260509184500 58 10 1.0 1.0 0.04 0.00 0.14 92 1011.9
20260509183000 59 89 1.0 2.0 0.01 0.00 0.10 88 1011.8
20260509181500 60 85 1.0 1.0 0.00 0.00 0.06 80 1011.3
20260509180001 62 81 1.0 2.0 0.00 0.00 0.06 75 1010.9
20260509174500 64 199 1.0 2.0 0.00 0.00 0.06 69 1010.7
20260509173000 63 187 1.0 2.0 0.00 0.00 0.06 72 1010.7
20260509171500 62 276 0.0 1.0 0.00 0.00 0.06 76 1010.9
20260509170001 62 243 0.0 2.0 0.00 0.00 0.06 75 1011.1
20260509164500 61 1 2.0 4.0 0.00 0.00 0.06 74 1010.9